Regional Weather Roundup
Issued by NWS

Home | Current Version | Previous Version | Text Only | Print | Product List | Glossary On
Versions: 1 2 3 4 5 6 7 8 9 10 11 12 13 14 15 16 17 18 19 20 21 22 23 24 25 26 27 28 29 30 31 32 33 34 35 36 37 38 39 40 41 42 43 44 45 46 47 48 49 50
000
ASUS45 KCYS 211810
RWRWY

WYOMING REGIONAL WEATHER ROUNDUP
NATIONAL WEATHER SERVICE CHEYENNE WY
1100 AM MST SAT JAN 21 2017

NOTE:  "FAIR" INDICATES FEW OR NO CLOUDS BELOW 12,000 FEET
WITH NO SIGNIFICANT WEATHER AND/OR OBSTRUCTIONS TO VISIBILITY.

WYZ001-211900-
YELLOWSTONE NATIONAL PARK

CITY           SKY/WX    TMP DP  RH WIND       PRES   REMARKS
LK YELLOWSTONE   N/A     16  12  84 CALM      29.42R
6HR MIN TEMP:   5; 6HR MAX TEMP:  16;

W YELLOWSTONE  NOT AVBL

$$
WYZ002>013-054>058-071-098>099-211900-
NORTHERN WYOMING

CITY           SKY/WX    TMP DP  RH WIND       PRES   REMARKS
JACKSON        SUNNY     18  14  86 CALM      29.44R
CODY           FAIR      24  12  60 NE3       29.40R
GREYBULL       CLOUDY    10   7  87 SE5       29.46R FOG     WCI   2
6HR MIN TEMP:   5; 6HR MAX TEMP:  10; 6HR PCP: TRACE;

WORLAND        FAIR      11  10  96 NW5       29.43S WCI   3
6HR MIN TEMP:   1; 6HR MAX TEMP:  12;

SHERIDAN       FAIR      28  17  63 CALM      29.40R
6HR MIN TEMP:  11; 6HR MAX TEMP:  28;

BUFFALO        FAIR      34  22  61 CALM      29.39R
6HR MIN TEMP:  23; 6HR MAX TEMP:  35;

GILLETTE       FAIR      34  28  79 CALM      29.40R
6HR MIN TEMP:  14; 6HR MAX TEMP:  34;

HULETT         FAIR      30  28  93 SW7       29.41S WCI  23
NEWCASTLE      CLOUDY    30  28  93 CALM      29.43S

$$
WYZ014>020-022>026-101>103-211900-
CENTRAL WYOMING

CITY           SKY/WX    TMP DP  RH WIND       PRES   REMARKS
BIG PINEY      CLOUDY    15  10  80 E3        29.41R
6HR MIN TEMP:   2; 6HR MAX TEMP:  15;

PINEDALE       CLOUDY    19  12  73 NW8       29.41R WCI   9
DUBOIS         NOT AVBL
LANDER         FAIR      19  14  81 CALM      29.40R
6HR MIN TEMP:   8; 6HR MAX TEMP:  20;

RIVERTON       FOG      N/A N/A N/A N5        29.42R VSB 1/4
                                      6HR PCP: TRACE;

CASPER         FAIR      32  21  64 NW6       29.39S WCI  26
6HR MIN TEMP:  15; 6HR MAX TEMP:  32;

DOUGLAS        FAIR      31  24  75 NW3       29.40F
6HR MIN TEMP:  11; 6HR MAX TEMP:  31;


$$
WYZ021-027>030-104>119-211900-
SOUTHERN WYOMING

CITY           SKY/WX    TMP DP  RH WIND       PRES   REMARKS
EVANSTON       FLURRIES  18  15  88 SW3       29.43R
6HR MIN TEMP:  16; 6HR MAX TEMP:  18; 6HR PCP: TRACE;

ROCK SPRINGS   FOG       15  13  91 CALM      29.40R VSB 1/4
6HR MIN TEMP:  12; 6HR MAX TEMP:  16;

RAWLINS        FAIR      22  17  81 CALM      29.38S
6HR MIN TEMP:   6; 6HR MAX TEMP:  23;

LARAMIE        FAIR      18  10  71 S3        29.37R
6HR MIN TEMP:   4; 6HR MAX TEMP:  19;

CHEYENNE       FAIR      36  19  50 E8        29.39R WCI  30
6HR MIN TEMP:  17; 6HR MAX TEMP:  36;

TORRINGTON     FAIR      33  25  72 CALM      29.41S
6HR MIN TEMP:  15; 6HR MAX TEMP:  33;


$$



USA.gov is the U.S. government's official web portal to all federal, state and local government web resources and services.